W5SDC Weather Reports


Display with metric or nautical units.
time (UTC)temp
F
wind
direction
speed
MPH
gust
MPH
rain 1hr
in
rain 24hr
in
rain mn
in
humidity
%
barometer
mb
20260502130529 55 321 4.0 6.0 0.00 0.77 0.00 89 1022.9
20260502123532 51 322 2.0 3.0 0.00 0.77 0.00 98 1022.4
20260502123041 50 310 3.0 4.0 0.00 0.77 0.00 99 1022.4
20260502122527 49 330 2.0 3.0 0.00 0.77 0.00 99 1022.2
20260502122016 48 314 2.0 3.0 0.00 0.77 0.00 99 1022.2
20260502121522 48 324 1.0 2.0 0.00 0.77 0.00 99 1022.1
20260502121029 47 315 1.0 3.0 0.00 0.77 0.00 99 1022.0
20260502120517 47 302 1.0 2.0 0.00 0.77 0.00 99 1022.0
20260502115530 47 294 1.0 2.0 0.00 0.77 0.00 99 1021.7
20260502115019 47 304 1.0 3.0 0.00 0.79 0.00 99 1021.6
20260502114032 46 284 1.0 2.0 0.00 0.81 0.00 99 1021.5
20260502113520 46 0.0 0.0 0.00 0.81 0.00 99 1021.4
20260502113027 47 0.0 0.0 0.00 0.81 0.00 99 1021.4
20260502112515 47 0.0 0.0 0.00 0.81 0.00 99 1021.4
20260502112022 47 0.0 0.0 0.00 0.83 0.00 99 1021.4
20260502111528 47 0.0 1.0 0.00 0.83 0.00 99 1021.4
20260502111017 47 265 1.0 2.0 0.00 0.85 0.00 99 1021.2
20260502110523 48 300 1.0 4.0 0.00 0.86 0.00 99 1021.2
20260502110131 48 210 2.0 4.0 0.00 0.87 0.00 99 1021.0
20260502105518 48 0.0 0.0 0.00 0.89 0.00 99 1021.0
20260502105025 48 281 1.0 3.0 0.00 0.90 0.00 99 1020.8
20260502104552 48 270 0.0 3.0 0.00 0.90 0.00 99 1020.6
20260502104020 48 315 1.0 2.0 0.00 0.91 0.00 99 1020.5
20260502103526 48 305 3.0 3.0 0.00 0.91 0.00 99 1020.3
20260502103033 49 308 2.0 4.0 0.00 0.91 0.00 99 1020.3
20260502102521 49 323 3.0 4.0 0.00 0.93 0.00 99 1020.2
20260502102028 49 321 3.0 4.0 0.00 0.95 0.00 99 1020.2
20260502101516 49 342 3.0 5.0 0.00 0.99 0.00 99 1020.1
20260502101023 49 329 4.0 5.0 0.00 0.99 0.00 99 1020.0
20260502100529 49 332 5.0 8.0 0.00 1.00 0.00 99 1020.0
20260502091522 49 346 5.0 8.0 0.00 1.04 0.00 99 1019.7
20260502091029 49 334 5.0 7.0 0.00 1.04 0.00 99 1019.6
20260502090517 50 347 5.0 7.0 0.00 1.04 0.00 99 1019.6
20260502071516 50 325 5.0 6.0 0.00 1.08 0.00 99 1019.6
20260502071123 50 338 4.0 5.0 0.00 1.08 0.00 99 1019.6
20260502070530 50 342 5.0 7.0 0.00 1.08 0.00 99 1019.6
20260502070018 50 339 6.0 8.0 0.00 1.08 0.00 99 1019.6
20260502065545 50 328 4.0 6.0 0.00 1.08 0.00 99 1019.6
20260502065031 50 345 4.0 6.0 0.00 1.08 0.00 99 1019.5
20260502064519 51 335 4.0 5.0 0.00 1.08 0.00 99 1019.5
20260502064026 51 346 4.0 5.0 0.00 1.08 0.00 99 1019.5
20260502063613 51 338 4.0 6.0 0.00 1.08 0.00 99 1019.5
20260502063021 51 357 4.0 5.0 0.00 1.08 0.00 99 1019.5
20260502062528 51 333 3.0 4.0 0.00 1.08 0.00 99 1019.5
20260502062016 51 348 4.0 4.0 0.00 1.08 0.00 99 1019.5
20260502061524 51 340 3.0 4.0 0.00 1.08 0.00 99 1019.5
20260502061049 51 353 3.0 5.0 0.00 1.08 0.00 99 1019.6
20260502060518 51 356 4.0 5.0 0.00 1.08 0.00 99 1019.6
20260502060024 51 343 5.0 6.0 0.00 1.08 0.00 99 1019.6
20260502055551 51 315 5.0 6.0 0.00 1.08 0.00 99 1019.6
20260502055019 51 342 4.0 7.0 0.00 1.08 0.00 99 1019.6
20260502054546 51 343 4.0 7.0 0.00 1.08 0.00 99 1019.6
20260502054032 51 352 5.0 7.0 0.00 1.08 0.00 99 1019.6
20260502053521 51 338 4.0 5.0 0.00 1.08 0.00 99 1019.5
20260502053027 51 353 4.0 5.0 0.00 1.08 0.00 99 1019.5
20260502052516 51 13 4.0 5.0 0.00 1.09 0.00 99 1019.4
20260502052042 51 2 4.0 5.0 0.00 1.09 0.00 99 1019.4
20260502051529 51 346 3.0 5.0 0.00 1.09 0.00 99 1019.4
20260502051158 51 334 3.0 4.0 0.00 1.09 0.00 99 1019.5
20260502050544 52 329 3.0 4.0 0.00 1.09 0.00 99 1019.5
20260502050051 52 351 3.0 4.0 0.00 1.09 0.00 99 1019.1
20260502045519 52 336 3.0 5.0 0.00 1.09 1.09 99 1019.1
20260502045025 52 349 3.0 4.0 0.00 1.09 1.09 99 1019.2
20260502044532 52 6 3.0 4.0 0.00 1.09 1.09 99 1019.3
20260502044040 52 360 3.0 4.0 0.00 1.09 1.09 99 1019.3
20260502043527 52 337 2.0 4.0 0.00 1.10 1.09 99 1019.4
20260502043015 52 330 3.0 3.0 0.00 1.10 1.09 99 1019.4
20260502042522 52 296 2.0 3.0 0.00 1.10 1.09 99 1019.2
20260502042029 53 333 3.0 4.0 0.00 1.10 1.09 99 1019.1
20260502041537 53 342 3.0 4.0 0.00 1.10 1.09 99 1019.1
20260502041023 53 322 3.0 5.0 0.00 1.10 1.09 99 1019.1
20260502040550 53 334 4.0 4.0 0.00 1.10 1.09 99 1019.1
20260502040018 53 339 4.0 5.0 0.00 1.10 1.09 99 1019.2
20260502035525 53 336 3.0 5.0 0.00 1.11 1.09 99 1019.3
20260502035031 53 343 4.0 5.0 0.00 1.11 1.09 99 1019.3
20260502034540 53 345 4.0 5.0 0.00 1.11 1.09 99 1019.4
20260502034026 53 340 5.0 6.0 0.00 1.11 1.09 99 1019.4
20260502033533 53 343 4.0 6.0 0.00 1.12 1.09 99 1019.3
20260502033021 53 326 4.0 6.0 0.00 1.12 1.09 99 1019.3
20260502032528 53 6 6.0 8.0 0.00 1.13 1.09 99 1019.2
20260502032016 53 354 6.0 9.0 0.00 1.13 1.09 99 1019.1
20260502031523 53 350 6.0 8.0 0.00 1.13 1.09 99 1019.1
20260502031029 53 349 6.0 8.0 0.00 1.14 1.09 99 1018.9
20260502030518 53 357 6.0 9.0 0.00 1.16 1.09 99 1018.9
20260502030024 53 350 7.0 9.0 0.00 1.18 1.09 99 1018.9
20260502025531 53 3 7.0 8.0 0.00 1.20 1.09 99 1018.9
20260502025019 53 346 8.0 10.0 0.00 1.23 1.09 99 1018.7
20260502024545 53 352 7.0 10.0 0.00 1.28 1.09 99 1018.6
20260502024032 53 349 7.0 9.0 0.00 1.34 1.09 99 1018.6
20260502023521 53 336 7.0 10.0 0.00 1.34 1.09 99 1018.5
20260502023027 53 342 6.0 8.0 0.00 1.34 1.09 99 1018.5
20260502022515 53 360 6.0 9.0 0.00 1.34 1.09 99 1018.4
20260502022042 53 350 7.0 8.0 0.00 1.34 1.09 99 1018.4
20260502021528 53 339 7.0 11.0 0.00 1.34 1.09 99 1018.2
20260502021037 53 351 7.0 9.0 0.00 1.34 1.09 99 1017.9
20260502020523 53 327 7.0 9.0 0.00 1.34 1.09 99 1017.9
20260502020030 53 352 6.0 9.0 0.00 1.34 1.09 99 1017.6
20260502015518 53 346 6.0 7.0 0.00 1.34 1.09 99 1017.6
20260502015025 53 346 8.0 11.0 0.00 1.34 1.09 99 1017.5
20260502014532 53 345 5.0 6.0 0.00 1.34 1.09 99 1017.5
20260502014020 53 351 6.0 9.0 0.00 1.34 1.09 99 1017.4
20260502013526 53 348 6.0 10.0 0.00 1.34 1.09 99 1017.2
20260502013033 53 325 6.0 8.0 0.00 1.34 1.09 99 1017.2
20260502012541 53 343 6.0 8.0 0.00 1.34 1.09 99 1017.1
20260502012028 53 4 6.0 9.0 0.00 1.34 1.09 99 1017.1
20260502011516 53 44 5.0 8.0 0.00 1.34 1.09 99 1017.0
20260502011023 53 21 6.0 8.0 0.00 1.34 1.09 99 1016.9
20260502010529 53 349 8.0 10.0 0.00 1.34 1.09 99 1016.9
20260502010018 53 357 7.0 10.0 0.00 1.34 1.09 99 1016.7
20260502005544 53 338 8.0 10.0 0.00 1.34 1.09 99 1016.7
20260502005031 53 354 7.0 11.0 0.00 1.34 1.09 99 1016.4
20260502004519 53 348 6.0 9.0 0.00 1.34 1.09 99 1016.3
20260502004046 53 333 7.0 10.0 0.00 1.34 1.09 99 1016.3
20260502003532 53 1 9.0 12.0 0.00 1.34 1.09 99 1016.3
20260502003020 53 3 8.0 11.0 0.00 1.34 1.09 99 1016.3
20260502002527 53 353 9.0 12.0 0.00 1.34 1.09 99 1016.2
20260502002015 53 348 9.0 13.0 0.00 1.34 1.09 99 1016.2
20260502001542 53 353 8.0 11.0 0.00 1.34 1.09 99 1016.0
20260502001029 53 8 9.0 12.0 0.00 1.34 1.09 99 1015.8
20260502000517 53 33 9.0 11.0 0.00 1.34 1.09 99 1015.8
20260502000043 53 18 9.0 15.0 0.00 1.34 1.09 99 1015.8
20260501235550 53 344 12.0 20.0 0.00 1.34 1.09 99 1015.8
20260501235019 53 8 10.0 15.0 0.00 1.34 1.09 99 1016.0
20260501234525 53 1 10.0 17.0 0.00 1.34 1.09 99 1016.2
20260501234032 53 341 11.0 17.0 0.00 1.34 1.09 99 1016.0
20260501233520 53 341 13.0 19.0 0.00 1.34 1.09 99 1015.5
20260501233027 53 342 11.0 17.0 0.00 1.34 1.09 99 1015.5
20260501232515 53 335 11.0 13.0 0.00 1.34 1.09 99 1015.5
20260501232022 54 324 13.0 17.0 0.00 1.34 1.09 99 1015.5
20260501231528 54 352 11.0 15.0 0.01 1.34 1.09 99 1015.5
20260501231017 54 349 8.0 12.0 0.01 1.34 1.09 99 1015.5
20260501230523 54 341 9.0 16.0 0.01 1.34 1.09 99 1015.5
20260501230030 55 329 8.0 11.0 0.01 1.34 1.09 99 1015.3
20260501225518 55 338 8.0 12.0 0.01 1.34 1.09 99 1015.3
20260501225025 55 344 9.0 13.0 0.02 1.34 1.09 99 1015.2
20260501224531 55 1 10.0 14.0 0.03 1.34 1.09 99 1015.1
20260501224019 55 348 11.0 17.0 0.05 1.34 1.09 99 1015.1
20260501223526 55 340 12.0 17.0 0.05 1.34 1.09 99 1015.0
20260501223033 55 340 13.0 16.0 0.05 1.34 1.09 99 1015.0
20260501222541 55 350 12.0 16.0 0.05 1.34 1.09 99 1015.1
20260501222027 55 333 13.0 18.0 0.05 1.34 1.09 99 1015.1
20260501221516 55 340 12.0 15.0 0.05 1.33 1.08 99 1015.1
20260501221023 55 338 11.0 18.0 0.05 1.33 1.08 99 1014.9
20260501220529 55 8 13.0 17.0 0.05 1.33 1.08 99 1014.9
20260501220057 55 345 10.0 17.0 0.05 1.33 1.08 99 1015.3
20260501215524 55 4 10.0 13.0 0.05 1.33 1.08 99 1015.3
20260501215030 55 325 7.0 9.0 0.04 1.32 1.07 99 1015.3
20260501214519 55 329 9.0 13.0 0.03 1.31 1.06 99 1015.3
20260501214025 55 339 10.0 15.0 0.01 1.29 1.04 99 1015.2
20260501213552 55 337 12.0 16.0 0.01 1.29 1.04 99 1014.7
20260501213020 55 340 12.0 18.0 0.01 1.29 1.04 99 1014.7
20260501212526 55 321 11.0 15.0 0.01 1.29 1.04 99 1014.5
20260501212035 55 325 11.0 16.0 0.01 1.29 1.04 99 1014.5
20260501211522 55 340 10.0 17.0 0.00 1.28 1.03 99 1014.4
20260501211109 55 331 14.0 17.0 0.01 1.28 1.03 99 1014.2
20260501210516 56 346 11.0 14.0 0.01 1.28 1.03 99 1014.2
20260501210023 56 321 10.0 14.0 0.01 1.28 1.03 99 1013.6
20260501205550 56 341 9.0 13.0 0.01 1.28 1.03 99 1013.6
20260501205018 56 331 11.0 19.0 0.01 1.28 1.03 99 1013.5
20260501204525 57 333 12.0 18.0 0.01 1.28 1.03 99 1013.4
20260501204031 57 337 12.0 18.0 0.01 1.28 1.03 99 1013.4
20260501203519 57 339 12.0 17.0 0.02 1.28 1.03 99 1013.3
20260501203026 57 334 12.0 16.0 0.03 1.28 1.03 99 1013.3
20260501202533 57 331 9.0 16.0 0.04 1.28 1.03 99 1013.1
20260501202021 57 347 15.0 18.0 0.05 1.28 1.03 99 1013.1
20260501201528 57 357 10.0 14.0 0.05 1.28 1.03 99 1013.1
20260501201016 57 328 14.0 22.0 0.04 1.27 1.02 99 1013.1
20260501200522 57 345 11.0 18.0 0.04 1.27 1.02 99 1013.1
20260501200029 57 360 9.0 13.0 0.04 1.27 1.02 99 1013.3
20260501195518 57 338 8.0 12.0 0.04 1.27 1.02 99 1013.3
20260501195024 57 355 9.0 11.0 0.04 1.27 1.02 99 1013.2
20260501194530 57 352 9.0 12.0 0.04 1.27 1.02 99 1013.2
20260501194039 57 328 9.0 14.0 0.04 1.27 1.02 99 1013.4
20260501193525 57 333 10.0 12.0 0.03 1.26 1.01 99 1014.2
20260501193112 57 10 9.0 16.0 0.02 1.25 1.00 99 1014.2
20260501192520 57 336 9.0 12.0 0.02 1.24 0.99 99 1014.4
20260501192027 57 320 8.0 10.0 0.03 1.23 0.98 99 1014.5
20260501191515 57 329 10.0 13.0 0.06 1.23 0.98 99 1014.0
20260501191022 57 2 10.0 14.0 0.09 1.23 0.98 99 1013.3
20260501190528 57 345 12.0 18.0 0.13 1.23 0.98 99 1013.3
20260501190016 58 326 14.0 17.0 0.20 1.24 0.98 99 1012.7
20260501185523 58 347 10.0 12.0 0.24 1.25 0.98 99 1012.7
20260501185030 58 351 9.0 15.0 0.24 1.27 0.98 99 1013.2
20260501184518 58 336 11.0 17.0 0.25 1.30 0.98 99 1013.6
20260501184025 57 342 11.0 16.0 0.25 1.32 0.98 99 1013.7
20260501183531 57 336 11.0 18.0 0.25 1.35 0.98 99 1014.3
20260501183020 57 346 10.0 17.0 0.26 1.46 0.98 99 1014.3
20260501182526 57 329 9.0 13.0 0.27 1.49 0.97 99 1015.7
20260501182033 56 343 9.0 13.0 0.27 1.49 0.95 99 1016.0
20260501181521 56 347 10.0 13.0 0.24 1.46 0.92 99 1016.5
20260501181028 56 335 9.0 13.0 0.21 1.43 0.89 99 1017.0
20260501180516 56 330 7.0 13.0 0.17 1.39 0.85 99 1017.0
20260501180023 56 336 6.0 9.0 0.10 1.32 0.78 99 1015.5
20260501175529 57 305 7.0 9.0 0.06 1.28 0.74 99 1015.5
20260501175018 57 297 5.0 9.0 0.06 1.28 0.74 99 1014.8
20260501174524 57 333 5.0 7.0 0.05 1.27 0.73 99 1014.2
20260501174031 57 356 8.0 10.0 0.05 1.27 0.73 99 1014.2
20260501173519 57 7 8.0 12.0 0.05 1.27 0.73 99 1014.2
20260501173106 57 5 8.0 13.0 0.04 1.26 0.72 99 1014.2
20260501172532 57 358 9.0 13.0 0.02 1.24 0.70 99 1014.3
20260501172020 57 356 9.0 12.0 0.00 1.22 0.68 99 1014.3
20260501171527 57 349 9.0 13.0 0.00 1.22 0.68 99 1014.1
20260501171015 57 345 8.0 10.0 0.00 1.22 0.68 99 1013.7
20260501170522 57 16 10.0 14.0 0.00 1.22 0.68 99 1013.7
20260501170030 57 355 9.0 13.0 0.00 1.22 0.68 99 1013.8
20260501165517 57 356 8.0 11.0 0.00 1.22 0.68 99 1013.8
20260501165023 57 360 8.0 15.0 0.00 1.22 0.68 99 1013.9
20260501164530 58 360 8.0 10.0 0.00 1.22 0.68 99 1014.0
20260501164018 58 4 8.0 12.0 0.00 1.22 0.68 99 1014.0
20260501163545 57 343 7.0 12.0 0.02 1.22 0.68 99 1014.1
20260501163031 57 20 8.0 12.0 0.04 1.24 0.68 99 1014.1
20260501162026 58 357 9.0 11.0 0.07 1.36 0.68 99 1013.7
20260501161538 58 12 10.0 15.0 0.08 1.42 0.68 99 1013.7
20260501161021 57 61 9.0 15.0 0.09 1.43 0.68 99 1013.6
20260501160528 57 338 9.0 16.0 0.10 1.43 0.68 99 1013.6
20260501160016 57 4 9.0 15.0 0.11 1.43 0.68 99 1013.6
20260501155543 57 13 9.0 11.0 0.12 1.43 0.68 99 1013.6
20260501155030 57 6 9.0 13.0 0.13 1.43 0.68 99 1013.0
20260501154518 57 22 10.0 12.0 0.13 1.43 0.68 99 1012.6
20260501154025 57 15 11.0 17.0 0.13 1.43 0.68 99 1013.1
20260501153531 57 20 9.0 12.0 0.11 1.41 0.66 99 1015.3
20260501153019 57 40 6.0 10.0 0.09 1.39 0.64 99 1015.3
20260501152546 57 34 6.0 10.0 0.07 1.37 0.62 99 1015.3
20260501152052 57 347 5.0 7.0 0.06 1.36 0.61 99 1015.3
20260501151521 57 339 4.0 7.0 0.05 1.35 0.60 99 1015.0
20260501151027 57 36 5.0 7.0 0.06 1.34 0.59 99 1014.4
20260501150515 57 15 7.0 10.0 0.07 1.33 0.58 99 1014.5
20260501150022 57 6 9.0 13.0 0.07 1.32 0.57 99 1015.1